Home   Weather   Olongapo   Past weeks

Flag for Philippines Past Weather in Olongapo, Philippines — Yesterday and Last 2 Weeks

Now
91 °F

Scattered clouds.


Feels Like: 103 °F
Forecast: 76 / 93 °F
Wind: 15 mph from Southwest

Location: Subic Bay Weather Station

Current Time: Apr 27, 2017 at 3:18:36 pm

Latest Report: Apr 27, 2017 at 2:00 pm


Visibility: N/A

Pressure: 29.74 "Hg

Humidity: 59%

Dew Point: 75 °F

Location of OlongapoLocation

Past Weather in Olongapo — Graph

°F

Olongapo Temperature Yesterday

Maximum temperature yesterday: 93 °F (at 11:00 am)
Minimum temperature yesterday: 79 °F (at 3:00 am)
Average temperature yesterday: 86 °F

High & Low Weather Summary for the Past Weeks

 TemperatureHumidityPressure
High97 °F (Apr 13, 3:00 pm)100% (Apr 25, 8:00 pm)29.95 "Hg (Apr 25, 8:00 pm)
Low68 °F (Apr 25, 8:00 pm)28% (Apr 14, 1:00 pm)29.74 "Hg (Apr 21, 3:00 pm)
Average85 °F67%29.82 "Hg
* Reported Apr 12 2:00 pm — Apr 27 2:00 pm, Olongapo, Weather by CustomWeather, © 2017

Note: Actual official high and low records may vary slightly from our data, if they occured in-between our weather recording intervals... More about our weather records

Advertising

Olongapo Weather History for the Previous 24 Hours

Scroll right to see more
 ConditionsComfort  
Time TempWeatherWind HumidityBarometerVisibility
2:00 pm
Thu, Apr 27
91 °FScattered clouds.15 mph59%29.74 "HgN/A
1:00 pm91 °FScattered clouds.16 mph56%29.77 "HgN/A
12:00 pm90 °FBroken clouds.14 mph63%29.80 "HgN/A
11:00 am90 °FBroken clouds.14 mph63%29.80 "HgN/A
10:00 am90 °FScattered clouds.9 mph59%29.83 "HgN/A
9:00 am88 °FScattered clouds.2 mph62%29.83 "HgN/A
8:00 am84 °FPassing clouds.2 mph70%29.83 "Hg6 mi
7:00 am81 °FPartly sunny.1 mph79%29.80 "Hg6 mi
6:00 am79 °FBroken clouds.No wind84%29.77 "Hg6 mi
5:00 am79 °FPassing clouds.1 mph84%29.77 "HgN/A
4:00 am79 °FPassing clouds.2 mph84%29.77 "HgN/A
3:00 am81 °FPassing clouds.2 mph79%29.80 "HgN/A
2:00 am81 °FPassing clouds.2 mph79%29.80 "HgN/A
1:00 am82 °FPassing clouds.3 mph74%29.80 "HgN/A
12:00 am82 °FPassing clouds.2 mph79%29.83 "HgN/A
11:00 pm
Wed, Apr 26
82 °FPassing clouds.2 mph79%29.83 "HgN/A
10:00 pm84 °FPassing clouds.6 mph74%29.83 "HgN/A
9:00 pm84 °FPassing clouds.8 mph74%29.80 "HgN/A
8:00 pm84 °FPassing clouds.9 mph74%29.80 "HgN/A
7:00 pm86 °FPassing clouds.16 mph70%29.77 "HgN/A
6:00 pm88 °FScattered clouds.13 mph62%29.74 "HgN/A
5:00 pm90 °FScattered clouds.12 mph59%29.74 "HgN/A
4:00 pm91 °FScattered clouds.10 mph52%29.74 "HgN/A
3:00 pm91 °FScattered clouds.14 mph52%29.74 "HgN/A
Weather by CustomWeather, © 2017

See weather overviewHow to use our weather pages